COSMOS 2251 DEB

Satellite information

Favourite Embed

Satellite Type and Status

DEBRISIN ORBIT

Key statistics

Satellite COSMOS 2251 DEB at a glance.

Uptime

11817

Days in orbit

Revolutions

≈ 13.5

Per day

Orbit

LEO

Low Earth Orbit

Inclination

73.9

Latest

Satellite identification and parameters

Extended collection of information and parameters for COSMOS 2251 DEB.

Object identification

Identified? True

Debris? True

Object name: COSMOS 2251 DEB

International designator: 1993-036UE

Object number (NORAD): 34544

Object ID (CCSDS): 34544

Country: COMMONWEALTH OF INDEPENDENT STATES (CIS)

Current information (Y/N): Y

RCS size: SMALL

Orbital parameters

Period: 106.305 minutes

Inclination: 73.9136 deg

SMA: 7433.555 km

Apoapsis: 1342.155 km

Periapsis: 768.684 km

RAAN: 287.095 deg

Eccentricy: 0.03857317

Argument of periapsis: 324.7284 deg

Mean anomaly: 188.6278 deg

Mean motion: 13.54590258 rev/day

Mean motion (dot): 0.00001435 rev/day2

B* drag term: 0.0013251972 1/REarth

Two-line elements (TLE)

Creation date: Oct. 23, 2025, 2:46 a.m.

Reference frame: TEME

Reference center: EARTH

Epoch: Oct. 22, 2025, 10:23 a.m. UTC

TLE line 0: 0 COSMOS 2251 DEB

TLE line 1: 1 34544U 93036UE 25295.43283620 .00001435 00000-0 13252-2 0 9990

TLE line 2: 2 34544 73.9136 287.0950 0385732 324.7284 188.6278 13.54590258821878

Live tracking on map

Real-time ground track for satellite COSMOS 2251 DEB.

In-orbit conjunctions

A list of the most updated potential collisions computed for object COSMOS 2251 DEB.

Target Orbit TCA Probability of collision Miss distance Type
METEOR 2-18 LEO 2025-06-10 00:56:57 0.0009364448 78.0 (m) PAYLOAD
FENGYUN 1C DEB SSO 2024-11-13 06:28:33 0.0004881578 218.0 (m) DEBRIS
DMSP 5D-2 F13 DEB SSO 2024-11-10 16:29:03 0.0002189757 154.0 (m) DEBRIS

Associated space launch

Military communications satellite. Destroyed in a collision with Iridium 33.

COSMOS 2251 DEB was lifted into orbit during the mission ‘Kosmos-3M | Strela-2M 51’, on board a Kosmos-3M space rocket.

The launch took place on June 16, 1993, 4:17 a.m. from 132/1 (132L).

For more information about the launch, click the button.

Launch to space Kosmos-3M | Strela-2M 51
Kosmos-3M | Strela-2M 51

Agency: N/A

Status: Launch Successful

Launch date: June 16, 1993, 4:17 a.m. UTC

Rocket: Kosmos-3M

Launch pad: 132/1 (132L)

Location: Plesetsk Cosmodrome, Russian Federation

...

Latest news about this satellite

There are no fresh news available about this satellite. Check back as we update our databases every day.


Newsletter sign-up

Weekly statistics, charts and insights to help you stay on top of the space industry.